Wind_Speed
3 3 1 3 3 8 6 3 5 5 13 15 16 12 19 25 20 17 15 14 10 7 6 5 6 8 9 12 13 15 16 14 12 10 9 11 12 14 17 21 27 28 28 27
2 6 4 1 3 3 4 3 5 1 6 4 19 16 20 26 23 18 14 11 8 4 3 2 3 6 8 12 15 18 13 11 10 11 10 10 14 16 17 19 21 24 25 28
2 3 3 2 3 5 1 2 4 5 4 9 13 15 21 24 20 15 10 7 4 3 3 1 3 7 11 15 15 17 19 17 16 15 15 14 15 16 18 19 21 22 23 22
2 5 1 5 1 2 6 2 4 2 4 8 16 18 19 18 17 13 10 6 4 3 3 6 11 13 13 15 16 18 18 19 20 20 22 21 21 21 22 23 25 25 25 25
3 3 3 4 5 5 5 3 3 6 11 21 30 30 16 13 15 12 8 6 5 4 6 9 12 15 18 20 22 26 28 29 27 26 26 26 27 28 29 28 28 29 28 28
4 5 8 7 5 8 5 4 6 14 15 20 14 5 3 13 12 9 6 3 3 6 9 13 18 21 24 26 28 28 28 29 28 27 28 31 32 34 34 33 32 32 33 33
2 4 5 4 4 4 5 5 18 20 14 11 5 9 18 11 8 5 1 4 9 12 16 18 20 21 22 23 23 23 25 26 27 26 27 28 29 30 31 32 33 35 36 34
4 2 7 7 5 7 6 21 29 25 14 19 23 21 16 10 5 2 6 10 14 18 21 22 21 22 23 23 23 24 26 27 28 28 29 30 30 30 29 29 32 34 35 35
6 5 4 7 5 6 26 36 30 25 22 20 19 14 8 4 2 6 10 14 17 18 18 16 17 19 23 23 24 26 28 28 29 30 30 30 31 31 31 29 29 31 33 34
2 4 5 5 14 27 30 30 28 25 23 17 17 11 7 1 4 8 10 11 13 14 17 19 21 23 23 23 24 26 29 31 32 30 30 29 30 30 28 27 28 29 29 30
1 4 4 16 26 27 27 25 25 21 18 16 12 9 4 2 4 7 9 11 13 15 17 20 21 21 21 21 23 26 29 30 29 27 27 30 30 27 24 23 23 25 26 26
6 15 4 20 24 26 28 26 22 20 19 14 9 7 3 2 4 7 9 12 13 14 15 17 18 19 20 21 23 24 26 26 25 25 25 25 23 21 20 20 20 21 23 25
3 26 10 27 28 27 26 23 20 16 14 14 10 5 4 4 5 7 9 10 11 13 15 17 18 20 21 23 23 21 23 23 23 23 22 21 22 24 26 25 25 24 22 22
10 29 20 33 28 25 23 22 20 17 13 10 7 6 5 4 5 7 9 11 12 13 15 16 17 20 22 21 20 20 19 19 19 21 21 23 23 25 27 30 34 33 27 20
21 20 24 29 26 28 26 25 22 18 14 11 8 4 4 3 5 8 10 12 14 17 18 18 19 21 22 21 21 21 20 20 21 21 21 24 25 27 27 26 29 32 32 29
18 18 25 27 27 30 27 24 20 18 14 11 8 6 5 3 5 8 10 11 14 19 21 23 21 22 24 23 24 23 21 20 20 22 23 24 22 19 19 19 21 24 28 31
18 22 24 25 27 26 24 20 17 15 14 12 8 6 5 4 5 5 7 10 12 15 20 24 25 24 23 22 25 24 23 22 22 23 23 23 22 21 21 21 23 26 29 30
5 12 16 18 20 22 21 19 16 15 14 12 9 7 7 5 3 4 4 7 10 12 16 22 26 26 23 24 25 25 24 23 24 25 25 25 24 22 22 24 26 29 31 33
5 5 10 13 14 17 18 17 17 14 14 12 10 9 8 6 5 5 5 6 9 11 14 18 23 25 25 24 24 24 25 27 27 26 26 27 28 28 28 27 27 28 30 24
2 2 6 14 12 12 12 14 15 16 16 13 11 12 9 9 6 2 1 4 8 11 13 15 18 21 24 25 25 25 26 28 28 29 29 30 30 30 31 33 34 33 29 27
4 5 4 3 9 8 11 11 11 15 14 14 11 11 10 8 8 5 6 5 6 9 12 13 12 16 21 22 23 25 27 29 30 32 33 33 31 31 32 31 32 34 33 29
4 3 4 7 3 3 7 8 10 11 14 15 13 11 11 9 10 6 6 8 7 8 10 11 9 11 15 18 21 23 26 28 30 30 31 32 33 32 31 31 31 29 31 32
4 6 7 9 9 9 8 8 9 13 15 18 17 12 10 10 11 13 13 9 10 10 11 10 8 8 11 15 16 20 24 26 30 30 30 30 30 31 31 29 29 28 29 28
7 7 7 8 8 9 10 11 14 16 18 19 18 14 10 10 11 8 10 16 18 14 12 8 7 7 8 10 14 17 20 24 28 30 30 29 29 29 30 29 27 27 27 27
7 6 7 7 8 4 4 3 4 6 9 10 14 9 7 5 4 8 14 15 13 12 9 5 6 6 7 8 11 14 16 19 24 27 29 30 29 28 26 28 27 25 24 26
7 7 6 6 2 2 6 11 10 11 10 11 10 11 9 2 5 12 19 11 10 9 5 3 5 3 5 7 8 11 14 16 19 23 27 29 28 27 24 24 26 26 24 24
7 5 4 6 5 5 11 6 8 6 8 9 7 6 4 4 9 17 15 6 4 5 4 4 6 5 5 8 10 11 14 16 16 19 24 27 27 25 23 22 22 23 24 23
Wind_Direction
218 258 253 130 161 163 187 182 165 222 185 206 195 182 177 177 177 170 164 148 134 128 109 74 43 34 30 15 2 351 344 348 353 343 311 294 290 278 268 264 263 263 260 259
77 31 1 68 327 218 205 151 283 76 248 272 169 171 167 179 181 175 171 150 141 121 47 39 52 15 350 334 330 333 334 335 338 337 329 309 290 287 284 280 282 278 273 261
209 54 23 44 226 279 335 75 147 202 249 143 145 158 166 177 179 174 163 157 149 147 190 276 337 327 317 315 311 312 311 313 313 308 304 297 291 288 293 293 284 281 285 282
144 48 299 250 103 149 126 51 324 92 104 137 131 137 158 171 173 162 155 165 179 212 265 298 310 304 301 298 298 299 298 300 300 297 293 287 283 283 288 291 292 291 282 283
124 164 279 287 232 189 184 297 320 128 116 121 124 115 84 136 150 150 160 183 205 253 293 295 293 293 295 295 294 295 299 299 298 293 286 281 280 282 286 287 284 283 282 281
139 197 200 234 184 125 120 293 134 141 133 137 142 114 175 126 133 141 152 179 264 287 296 298 296 297 299 301 301 303 301 299 298 295 289 286 283 282 283 283 280 279 277 277
158 223 286 227 185 131 124 236 152 154 132 115 102 137 139 137 140 146 202 284 297 301 305 308 310 307 304 304 308 303 298 296 296 298 297 293 292 285 282 281 279 277 278 279
112 128 264 157 115 178 171 135 154 155 138 118 123 132 141 149 160 256 299 307 306 306 305 307 309 307 306 306 305 303 300 299 299 299 299 297 299 296 291 284 280 277 278 280
179 215 297 276 262 225 155 149 155 151 150 150 140 138 140 140 331 316 314 312 313 314 315 316 314 315 313 310 305 302 298 298 302 303 301 297 294 294 294 289 283 280 276 279
68 331 341 118 146 149 149 144 146 146 144 146 142 141 139 130 315 316 319 320 319 317 314 312 310 309 309 308 306 303 303 301 304 306 306 300 298 294 290 288 289 285 281 278
27 303 120 145 147 145 143 142 140 139 140 137 134 126 98 18 332 327 324 320 317 315 312 313 315 315 315 314 315 315 313 311 311 315 315 307 299 296 290 289 288 286 282 281
212 195 160 175 161 155 148 145 147 146 136 130 124 113 92 7 337 333 331 323 319 318 321 329 332 330 327 327 323 324 326 327 322 319 317 316 314 308 296 296 296 288 283 278
228 186 182 168 167 164 154 151 151 145 141 140 128 104 79 72 41 7 353 345 344 343 341 340 343 346 340 334 332 334 330 329 327 322 316 316 312 310 307 306 306 304 291 282
223 174 159 167 168 166 158 153 150 147 142 133 125 112 111 79 40 19 19 20 18 11 7 2 2 3 0 354 349 341 337 333 330 331 326 318 315 309 307 303 305 306 303 290
177 182 179 166 162 166 161 159 160 157 152 151 138 122 133 95 43 40 52 52 44 37 28 21 16 10 8 4 1 354 349 341 335 332 327 314 303 302 304 305 306 303 304 297
154 156 156 159 161 163 167 168 166 162 164 164 160 151 144 95 77 81 71 52 39 37 32 27 20 15 11 6 11 5 1 357 353 351 343 339 338 327 324 321 320 312 307 304
144 145 157 160 166 170 177 180 180 171 171 176 169 163 162 131 112 87 64 51 43 37 30 26 21 17 14 9 13 4 7 8 8 6 3 358 351 340 330 322 315 319 322 314
193 164 165 185 176 176 181 184 184 181 185 180 176 179 183 160 121 85 61 44 39 32 25 23 20 18 13 15 18 12 12 11 15 13 13 13 9 2 353 345 340 330 323 323
96 179 177 216 198 191 193 192 196 200 198 198 199 189 187 172 148 89 69 40 22 14 12 14 17 15 16 15 15 13 16 20 21 22 21 21 20 17 13 8 2 358 353 333
238 267 333 212 204 206 207 213 211 208 210 206 200 198 195 186 179 157 33 11 10 8 7 6 10 16 21 22 23 24 25 25 23 23 22 22 20 18 20 17 15 15 14 7
255 302 301 50 192 228 234 226 226 212 214 216 222 222 215 204 220 231 267 289 332 350 358 4 1 18 27 28 26 28 29 29 27 24 22 19 18 18 18 18 20 21 20 28
358 294 317 333 1 248 229 239 236 219 223 228 225 223 226 234 232 242 273 283 287 293 335 351 350 4 22 23 24 24 23 23 21 19 19 18 18 17 17 17 18 20 23 27
292 313 314 302 287 267 254 245 242 236 227 233 228 227 228 248 266 271 276 284 286 295 298 326 339 334 15 21 16 17 19 19 17 15 14 14 14 15 16 16 18 19 24 23
298 306 297 284 278 275 272 265 259 253 249 235 220 227 243 267 275 280 297 296 289 275 276 291 314 297 344 359 0 7 11 15 17 17 14 12 12 12 14 16 17 20 24 27
283 295 293 299 296 284 281 255 238 213 188 186 201 198 210 199 310 337 326 294 286 270 267 278 299 298 329 336 345 1 2 6 11 13 12 12 9 9 13 15 17 18 21 24
282 295 293 298 222 198 150 124 116 127 146 148 147 169 169 189 319 330 331 300 275 263 227 303 318 312 341 338 340 355 352 350 354 3 8 7 6 7 9 13 17 19 22 23
268 271 262 175 144 129 160 157 163 160 175 181 171 181 216 304 323 336 336 297 255 214 242 291 310 297 336 337 338 336 333 330 338 351 358 0 1 2 5 7 11 17 21 23
Height
1489 1487 1483 1482 1485 1493 1499 1499 1502 1498 1501 1490 1492 1495 1502 1508 1516 1518 1521 1520 1522 1524 1526 1526 1526 1525 1526 1526 1526 1526 1527 1526 1525 1524 1523 1522 1522 1521 1519 1518 1520 1520 1520 1519
1491 1488 1487 1489 1485 1484 1489 1494 1494 1494 1498 1485 1492 1499 1505 1509 1514 1519 1521 1521 1522 1524 1525 1526 1526 1525 1525 1524 1524 1523 1523 1524 1523 1523 1521 1520 1519 1518 1517 1515 1514 1512 1511 1511
1496 1495 1490 1502 1497 1492 1487 1488 1490 1496 1486 1487 1495 1500 1504 1510 1516 1519 1520 1521 1522 1524 1526 1526 1524 1524 1524 1523 1522 1521 1520 1519 1519 1518 1518 1517 1516 1514 1512 1510 1508 1506 1504 1504
1501 1496 1517 1495 1488 1487 1492 1493 1489 1487 1488 1490 1494 1501 1507 1512 1515 1517 1520 1522 1524 1524 1525 1524 1522 1522 1522 1520 1519 1518 1517 1515 1513 1511 1510 1510 1509 1508 1506 1504 1501 1499 1498 1497
1506 1513 1504 1490 1485 1486 1489 1494 1491 1491 1491 1493 1498 1502 1511 1513 1515 1518 1520 1523 1523 1523 1521 1520 1520 1519 1517 1516 1514 1512 1509 1507 1505 1504 1503 1502 1500 1499 1497 1495 1493 1491 1490 1489
1505 1509 1517 1484 1478 1478 1483 1498 1487 1489 1491 1492 1495 1509 1513 1513 1515 1518 1519 1520 1520 1520 1519 1518 1517 1515 1512 1509 1506 1505 1501 1498 1497 1496 1495 1493 1492 1490 1488 1487 1484 1483 1480 1480
1501 1501 1492 1477 1480 1478 1497 1493 1484 1489 1492 1492 1497 1501 1507 1512 1514 1516 1517 1517 1517 1516 1515 1513 1510 1508 1505 1503 1501 1498 1495 1493 1491 1489 1487 1485 1482 1481 1479 1476 1475 1473 1471 1470
1501 1499 1498 1474 1478 1486 1477 1479 1483 1489 1492 1496 1499 1503 1508 1511 1513 1514 1515 1514 1513 1512 1510 1508 1505 1501 1499 1497 1495 1491 1488 1485 1483 1482 1479 1477 1474 1471 1469 1467 1465 1464 1462 1460
1487 1486 1476 1474 1473 1472 1472 1474 1484 1488 1493 1496 1499 1503 1507 1509 1511 1512 1512 1511 1509 1507 1505 1504 1501 1498 1494 1491 1488 1485 1482 1480 1477 1474 1471 1468 1465 1463 1460 1459 1457 1454 1453 1451
1482 1479 1476 1474 1474 1474 1478 1479 1485 1489 1494 1498 1501 1505 1508 1510 1510 1510 1509 1508 1507 1505 1502 1500 1497 1494 1491 1487 1483 1480 1476 1473 1470 1466 1463 1461 1458 1455 1453 1451 1449 1447 1445 1443
1485 1481 1480 1476 1477 1478 1481 1485 1489 1494 1497 1499 1502 1505 1507 1508 1508 1508 1507 1505 1504 1502 1500 1497 1493 1490 1486 1483 1479 1474 1471 1466 1463 1460 1457 1452 1449 1446 1445 1444 1442 1440 1437 1436
1478 1470 1474 1475 1477 1479 1482 1486 1491 1493 1497 1500 1503 1505 1506 1506 1507 1506 1505 1503 1501 1499 1496 1493 1490 1487 1483 1479 1475 1470 1465 1461 1458 1454 1451 1446 1442 1439 1438 1436 1434 1432 1430 1428
1463 1465 1468 1472 1477 1481 1483 1486 1491 1494 1497 1500 1503 1504 1506 1506 1506 1505 1504 1501 1499 1497 1494 1490 1487 1483 1479 1474 1470 1466 1461 1457 1453 1449 1445 1442 1438 1435 1431 1427 1426 1424 1422 1421
1463 1465 1469 1471 1474 1481 1484 1488 1493 1497 1500 1501 1503 1504 1505 1505 1506 1505 1502 1500 1498 1495 1491 1488 1485 1481 1477 1472 1467 1462 1458 1454 1449 1445 1441 1437 1433 1430 1427 1422 1417 1413 1413 1412
1459 1462 1465 1470 1476 1480 1485 1489 1492 1495 1499 1501 1503 1504 1504 1504 1504 1502 1501 1500 1498 1495 1491 1488 1484 1480 1475 1469 1464 1459 1454 1450 1446 1442 1437 1433 1429 1424 1421 1417 1412 1407 1404 1403
1462 1464 1469 1472 1477 1481 1484 1488 1491 1495 1498 1500 1502 1503 1503 1503 1503 1502 1501 1500 1497 1493 1491 1487 1483 1478 1473 1468 1462 1457 1453 1449 1444 1438 1433 1427 1422 1418 1415 1411 1407 1403 1399 1395
1466 1467 1472 1475 1476 1479 1483 1486 1490 1493 1496 1498 1500 1501 1502 1502 1502 1501 1500 1498 1496 1494 1491 1487 1483 1477 1473 1468 1461 1458 1453 1448 1442 1436 1430 1425 1420 1416 1412 1408 1404 1399 1394 1389
1472 1470 1472 1478 1478 1480 1483 1486 1490 1492 1493 1496 1497 1499 1500 1500 1501 1500 1499 1497 1496 1494 1491 1487 1482 1477 1473 1467 1463 1459 1453 1448 1442 1436 1430 1425 1419 1415 1410 1405 1399 1393 1386 1380
1472 1474 1475 1479 1479 1482 1483 1485 1488 1491 1493 1494 1496 1497 1498 1499 1499 1498 1497 1496 1495 1493 1491 1487 1483 1479 1473 1468 1464 1459 1454 1448 1443 1438 1433 1427 1421 1416 1410 1404 1397 1390 1381 1374
1474 1477 1477 1477 1480 1482 1483 1485 1487 1488 1490 1492 1494 1495 1495 1496 1496 1496 1496 1495 1493 1492 1489 1487 1484 1480 1475 1470 1466 1460 1455 1450 1445 1440 1434 1428 1423 1417 1411 1405 1397 1389 1381 1374
1475 1475 1477 1477 1479 1481 1483 1484 1485 1486 1488 1490 1491 1491 1492 1493 1493 1494 1493 1492 1491 1489 1488 1485 1483 1480 1476 1472 1468 1463 1457 1452 1447 1442 1436 1430 1425 1419 1413 1406 1400 1394 1387 1378
1477 1476 1476 1477 1478 1479 1480 1481 1482 1483 1485 1486 1487 1489 1489 1489 1490 1490 1490 1490 1489 1487 1486 1484 1481 1479 1476 1474 1470 1465 1460 1455 1450 1444 1439 1433 1427 1421 1415 1410 1404 1399 1393 1386
1476 1475 1475 1476 1478 1478 1477 1478 1479 1480 1481 1482 1484 1486 1487 1488 1488 1487 1487 1487 1485 1484 1483 1481 1479 1478 1476 1474 1471 1466 1462 1457 1451 1446 1441 1436 1431 1425 1419 1413 1408 1403 1397 1392
1476 1475 1476 1476 1475 1474 1474 1473 1474 1475 1476 1478 1480 1482 1483 1485 1485 1484 1484 1482 1480 1480 1479 1479 1477 1477 1476 1473 1470 1466 1462 1458 1453 1448 1443 1438 1433 1428 1422 1417 1411 1406 1401 1396
1474 1474 1474 1473 1472 1471 1471 1470 1470 1470 1472 1474 1476 1479 1482 1482 1483 1482 1480 1478 1477 1476 1476 1476 1475 1474 1473 1471 1468 1466 1462 1459 1455 1450 1445 1440 1435 1429 1425 1420 1415 1410 1405 1400
1472 1472 1471 1470 1470 1470 1470 1470 1471 1471 1473 1475 1476 1478 1480 1481 1480 1478 1476 1473 1473 1473 1474 1474 1473 1472 1471 1469 1467 1464 1461 1458 1456 1452 1447 1442 1437 1431 1427 1422 1418 1413 1408 1404
1468 1469 1469 1469 1470 1470 1471 1472 1473 1474 1476 1477 1477 1478 1479 1478 1477 1475 1472 1470 1470 1471 1471 1472 1471 1470 1469 1467 1465 1463 1460 1458 1455 1451 1447 1443 1438 1433 1428 1424 1420 1416 1411 1407